Location: Unspecified
(48.8656°N, 0.0000°E)
Time: 20:44:49
(UTC+00:00)

Transit 2A Rocket - Pass Details

Date: 19 June 2019
Orbit: 588 x 915 km, 66.7° (Epoch: 18 July)

Event Time Altitude Azimuth Distance (km) Brightness Sun altitude
Rises 19:34:15 0° 322° (NW) 3,342 9.9 3.5°
Reaches altitude 10° 19:36:49 10° 320° (NW) 2,355 9.3 3.2°
Maximum altitude 19:42:07 63° 240° (WSW) 817 5.4 2.4°
Drops below altitude 10° 19:46:54 10° 160° (SSE) 2,124 6.8 1.8°
Sets 19:49:07 0° 157° (SSE) 2,988 7.5 1.5°
